| time (UTC) | temp C | wind direction | speed KPH | gust KPH | rain 1hr cm | rain 24hr cm | rain mn cm | humidity % | barometer mb |
| 20260906130953 | 20 | 321 | 3.2 | 8.0 | 0.00 | 0.00 | 0.00 | 100 | 1019.4 |
| 20260906130447 | 20 | 56 | 3.2 | 8.0 | 0.00 | 0.00 | 0.00 | 100 | 1019.4 |
| 20260906125941 | 20 | 41 | 3.2 | 8.0 | 0.00 | 0.00 | 0.00 | 100 | 1019.2 |
| 20260906125436 | 20 | 90 | 1.6 | 6.4 | 0.00 | 0.00 | 0.00 | 100 | 1019.4 |
| 20260906124930 | 20 | 77 | 1.6 | 6.4 | 0.00 | 0.00 | 0.00 | 100 | 1019.1 |
| 20260906124424 | 19 | 136 | 1.6 | 6.4 | 0.00 | 0.00 | 0.00 | 100 | 1019.1 |
| 20260906123918 | 19 | 46 | 1.6 | 6.4 | 0.00 | 0.00 | 0.00 | 100 | 1019.0 |
| 20260906123411 | 19 | 46 | 1.6 | 6.4 | 0.00 | 0.00 | 0.00 | 100 | 1019.1 |
| 20260906122905 | 19 | 20 | 1.6 | 6.4 | 0.00 | 0.00 | 0.00 | 100 | 1019.0 |
| 20260906122405 | 19 | 136 | 1.6 | 6.4 | 0.00 | 0.00 | 0.00 | 100 | 1019.1 |
| 20260906121905 | 19 | 46 | 1.6 | 4.8 | 0.00 | 0.00 | 0.00 | 100 | 1019.1 |
| 20260906121405 | 19 | 56 | 1.6 | 6.4 | 0.00 | 0.00 | 0.00 | 100 | 1019.1 |
| 20260906120906 | 19 | 35 | 3.2 | 9.7 | 0.00 | 0.00 | 0.00 | 100 | 1019.0 |
| 20260906115904 | 19 | 124 | 1.6 | 8.0 | 0.00 | 0.00 | 0.00 | 100 | 1018.9 |
| 20260906115405 | 19 | 23 | 1.6 | 6.4 | 0.00 | 0.00 | 0.00 | 100 | 1018.8 |
| 20260906114904 | 19 | 72 | 3.2 | 8.0 | 0.00 | 0.00 | 0.00 | 100 | 1018.7 |
| 20260906114404 | 19 | 56 | 3.2 | 8.0 | 0.00 | 0.00 | 0.00 | 100 | 1018.4 |
| 20260906113906 | 19 | 51 | 1.6 | 8.0 | 0.00 | 0.00 | 0.00 | 100 | 1018.3 |
| 20260906113404 | 19 | 54 | 1.6 | 8.0 | 0.00 | 0.00 | 0.00 | 100 | 1018.2 |
| 20260906112905 | 19 | 37 | 3.2 | 8.0 | 0.00 | 0.00 | 0.00 | 100 | 1018.2 |
| 20260906111905 | 19 | 35 | 3.2 | 11.3 | 0.00 | 0.00 | 0.00 | 100 | 1018.2 |
| 20260906111406 | 18 | 124 | 1.6 | 9.7 | 0.00 | 0.00 | 0.00 | 100 | 1018.2 |
| 20260906110905 | 18 | 28 | 1.6 | 8.0 | 0.00 | 0.00 | 0.00 | 100 | 1018.2 |
| 20260906110406 | 18 | 51 | 3.2 | 9.7 | 0.00 | 0.00 | 0.00 | 100 | 1018.0 |
| 20260906105906 | 18 | 33 | 3.2 | 9.7 | 0.00 | 0.00 | 0.00 | 100 | 1018.0 |
| 20260906104906 | 18 | 223 | 4.8 | 9.7 | 0.00 | 0.00 | 0.00 | 99 | 1018.0 |
| 20260906104405 | 18 | 46 | 4.8 | 11.3 | 0.00 | 0.00 | 0.00 | 99 | 1017.9 |
| 20260906103903 | 18 | 28 | 4.8 | 14.5 | 0.00 | 0.00 | 0.00 | 99 | 1018.0 |
| 20260906103404 | 18 | 51 | 4.8 | 14.5 | 0.00 | 0.00 | 0.00 | 99 | 1017.9 |
| 20260906102904 | 18 | 51 | 3.2 | 9.7 | 0.00 | 0.00 | 0.00 | 99 | 1017.7 |
| 20260906102405 | 18 | 28 | 3.2 | 9.7 | 0.00 | 0.00 | 0.00 | 99 | 1017.7 |
| 20260906101905 | 18 | 46 | 3.2 | 11.3 | 0.00 | 0.00 | 0.00 | 99 | 1017.7 |
| 20260906101405 | 18 | 46 | 3.2 | 11.3 | 0.00 | 0.00 | 0.00 | 99 | 1017.7 |
| 20260906100404 | 18 | 46 | 4.8 | 9.7 | 0.00 | 0.00 | 0.00 | 99 | 1017.6 |
| 20260906095904 | 18 | 28 | 4.8 | 12.9 | 0.00 | 0.00 | 0.00 | 99 | 1017.6 |
| 20260906095406 | 18 | 32 | 4.8 | 12.9 | 0.00 | 0.00 | 0.00 | 98 | 1017.7 |
| 20260906094904 | 18 | 35 | 4.8 | 12.9 | 0.00 | 0.00 | 0.00 | 98 | 1017.6 |
| 20260906094402 | 18 | 41 | 3.2 | 9.7 | 0.00 | 0.00 | 0.00 | 98 | 1017.4 |
| 20260906093903 | 18 | 35 | 3.2 | 9.7 | 0.00 | 0.00 | 0.00 | 98 | 1017.4 |
| 20260906093357 | 18 | 346 | 4.8 | 11.3 | 0.00 | 0.00 | 0.00 | 98 | 1017.5 |
| 20260906092850 | 18 | 28 | 4.8 | 11.3 | 0.00 | 0.00 | 0.00 | 98 | 1017.5 |
| 20260906092345 | 18 | 28 | 3.2 | 11.3 | 0.00 | 0.00 | 0.00 | 98 | 1017.4 |
| 20260906091838 | 18 | 39 | 4.8 | 9.7 | 0.00 | 0.00 | 0.00 | 98 | 1017.5 |
| 20260906090828 | 18 | 46 | 4.8 | 11.3 | 0.00 | 0.00 | 0.00 | 98 | 1017.4 |
| 20260906085815 | 18 | 27 | 4.8 | 11.3 | 0.00 | 0.00 | 0.00 | 98 | 1017.4 |
| 20260906085309 | 19 | 6 | 3.2 | 9.7 | 0.00 | 0.00 | 0.00 | 97 | 1017.4 |
| 20260906084802 | 19 | 46 | 3.2 | 9.7 | 0.00 | 0.00 | 0.00 | 97 | 1017.4 |
| 20260906084256 | 19 | 20 | 3.2 | 9.7 | 0.00 | 0.00 | 0.00 | 97 | 1017.4 |
| 20260906083750 | 19 | 46 | 3.2 | 9.7 | 0.00 | 0.00 | 0.00 | 97 | 1017.3 |
| 20260906083245 | 19 | 39 | 4.8 | 9.7 | 0.00 | 0.00 | 0.00 | 97 | 1017.4 |
| 20260906082739 | 19 | 39 | 4.8 | 9.7 | 0.00 | 0.00 | 0.00 | 97 | 1017.4 |
| 20260906082233 | 19 | 54 | 3.2 | 8.0 | 0.00 | 0.00 | 0.00 | 97 | 1017.3 |
| 20260906081726 | 19 | 46 | 3.2 | 8.0 | 0.00 | 0.00 | 0.00 | 97 | 1017.4 |
| 20260906080715 | 19 | 46 | 3.2 | 9.7 | 0.00 | 0.00 | 0.00 | 97 | 1017.5 |
| 20260906080208 | 19 | 39 | 3.2 | 6.4 | 0.00 | 0.00 | 0.00 | 96 | 1017.4 |
| 20260906075156 | 20 | 21 | 4.8 | 11.3 | 0.00 | 0.00 | 0.00 | 96 | 1017.5 |
| 20260906074651 | 20 | 41 | 4.8 | 12.9 | 0.00 | 0.00 | 0.00 | 96 | 1017.6 |
| 20260906074144 | 20 | 42 | 3.2 | 12.9 | 0.00 | 0.00 | 0.00 | 96 | 1017.6 |
| 20260906073639 | 20 | 46 | 3.2 | 8.0 | 0.00 | 0.00 | 0.00 | 96 | 1017.6 |
| 20260906073132 | 20 | 136 | 3.2 | 9.7 | 0.00 | 0.00 | 0.00 | 96 | 1017.5 |
| 20260906072627 | 20 | 28 | 3.2 | 11.3 | 0.00 | 0.00 | 0.00 | 96 | 1017.6 |
| 20260906072121 | 20 | 46 | 3.2 | 11.3 | 0.00 | 0.00 | 0.00 | 96 | 1017.6 |
| 20260906071615 | 20 | 136 | 3.2 | 9.7 | 0.00 | 0.00 | 0.00 | 95 | 1017.6 |
| 20260906071109 | 20 | 30 | 3.2 | 9.7 | 0.00 | 0.00 | 0.00 | 96 | 1017.6 |
| 20260906070603 | 20 | 23 | 3.2 | 8.0 | 0.00 | 0.00 | 0.00 | 96 | 1017.6 |
| 20260906070056 | 20 | 20 | 3.2 | 9.7 | 0.00 | 0.00 | 0.00 | 96 | 1017.6 |
| 20260906065550 | 20 | 28 | 3.2 | 9.7 | 0.00 | 0.00 | 0.00 | 95 | 1017.6 |
| 20260906065044 | 20 | 30 | 3.2 | 11.3 | 0.00 | 0.00 | 0.00 | 95 | 1017.6 |
| 20260906064539 | 20 | 30 | 3.2 | 11.3 | 0.00 | 0.00 | 0.00 | 95 | 1017.6 |
| 20260906064033 | 20 | 46 | 3.2 | 11.3 | 0.00 | 0.00 | 0.00 | 95 | 1017.6 |
| 20260906063526 | 20 | 56 | 4.8 | 11.3 | 0.00 | 0.00 | 0.00 | 95 | 1017.7 |
| 20260906063020 | 20 | 28 | 3.2 | 11.3 | 0.00 | 0.00 | 0.00 | 95 | 1017.6 |
| 20260906062521 | 20 | 33 | 3.2 | 8.0 | 0.00 | 0.00 | 0.00 | 95 | 1017.6 |
| 20260906062021 | 20 | 23 | 3.2 | 11.3 | 0.00 | 0.00 | 0.00 | 95 | 1017.6 |
| 20260906061521 | 20 | 328 | 3.2 | 11.3 | 0.00 | 0.00 | 0.00 | 95 | 1017.7 |
| 20260906061021 | 20 | 18 | 3.2 | 9.7 | 0.00 | 0.00 | 0.00 | 95 | 1017.7 |
| 20260906060521 | 20 | 179 | 3.2 | 9.7 | 0.00 | 0.00 | 0.00 | 94 | 1017.6 |
| 20260906060020 | 20 | 63 | 3.2 | 9.7 | 0.00 | 0.00 | 0.00 | 94 | 1017.6 |
| 20260906055519 | 20 | 40 | 3.2 | 11.3 | 0.00 | 0.00 | 0.00 | 94 | 1017.6 |
| 20260906055021 | 20 | 146 | 3.2 | 11.3 | 0.00 | 0.00 | 0.00 | 94 | 1017.6 |
| 20260906054519 | 20 | 25 | 3.2 | 12.9 | 0.00 | 0.00 | 0.00 | 94 | 1017.6 |
| 20260906054018 | 20 | 46 | 3.2 | 14.5 | 0.00 | 0.00 | 0.00 | 94 | 1017.6 |
| 20260906053518 | 21 | 75 | 3.2 | 14.5 | 0.00 | 0.00 | 0.00 | 94 | 1017.6 |
| 20260906053018 | 21 | 90 | 3.2 | 9.7 | 0.00 | 0.00 | 0.00 | 94 | 1017.6 |
| 20260906052518 | 21 | 13 | 3.2 | 9.7 | 0.00 | 0.00 | 0.00 | 94 | 1017.6 |
| 20260906052019 | 21 | 82 | 3.2 | 6.4 | 0.00 | 0.00 | 0.00 | 94 | 1017.5 |
| 20260906051518 | 21 | 60 | 3.2 | 6.4 | 0.00 | 0.00 | 0.00 | 94 | 1017.5 |
| 20260906051017 | 21 | 32 | 3.2 | 9.7 | 0.00 | 0.00 | 0.00 | 94 | 1017.4 |
| 20260906050516 | 21 | 20 | 3.2 | 9.7 | 0.00 | 0.00 | 0.00 | 94 | 1017.3 |
| 20260906050010 | 21 | 136 | 3.2 | 9.7 | 0.00 | 0.00 | 0.00 | 94 | 1017.3 |
| 20260906045503 | 21 | 161 | 3.2 | 9.7 | 0.00 | 0.00 | 0.00 | 94 | 1017.3 |
| 20260906044957 | 21 | 46 | 3.2 | 9.7 | 0.00 | 0.00 | 0.00 | 94 | 1017.2 |
| 20260906044451 | 21 | 56 | 3.2 | 9.7 | 0.00 | 0.00 | 0.00 | 93 | 1017.2 |
| 20260906043945 | 21 | 37 | 3.2 | 9.7 | 0.00 | 0.00 | 0.00 | 93 | 1017.2 |
| 20260906042934 | 21 | 328 | 4.8 | 14.5 | 0.00 | 0.00 | 0.00 | 93 | 1017.2 |
| 20260906042427 | 21 | 23 | 3.2 | 11.3 | 0.00 | 0.00 | 0.00 | 93 | 1017.1 |
| 20260906041922 | 21 | 35 | 3.2 | 8.0 | 0.00 | 0.00 | 0.00 | 93 | 1017.0 |
| 20260906040909 | 21 | 42 | 3.2 | 8.0 | 0.00 | 0.00 | 0.00 | 93 | 1017.0 |
| 20260906035858 | 21 | 117 | 1.6 | 4.8 | 0.00 | 0.00 | 0.00 | 93 | 1016.9 |
| 20260906035351 | 21 | 296 | 1.6 | 6.4 | 0.00 | 0.00 | 0.00 | 92 | 1016.8 |
| 20260906034845 | 21 | 105 | 3.2 | 6.4 | 0.00 | 0.00 | 0.00 | 92 | 1016.8 |
| 20260906032315 | 21 | 25 | 1.6 | 6.4 | 0.00 | 0.00 | 0.00 | 92 | 1016.5 |
| 20260906031809 | 21 | 63 | 1.6 | 6.4 | 0.00 | 0.00 | 0.00 | 92 | 1016.4 |
| 20260906031303 | 21 | 105 | 3.2 | 4.8 | 0.00 | 0.00 | 0.00 | 91 | 1016.4 |
| 20260906030758 | 21 | 1 | 3.2 | 8.0 | 0.00 | 0.00 | 0.00 | 91 | 1016.4 |
| 20260906030251 | 21 | 121 | 3.2 | 8.0 | 0.00 | 0.00 | 0.00 | 91 | 1016.3 |
| 20260906025746 | 21 | 68 | 3.2 | 8.0 | 0.00 | 0.00 | 0.00 | 91 | 1016.4 |
| 20260906025246 | 21 | 78 | 3.2 | 8.0 | 0.00 | 0.00 | 0.00 | 91 | 1016.3 |
| 20260906024746 | 21 | 46 | 3.2 | 8.0 | 0.00 | 0.00 | 0.00 | 91 | 1016.3 |
| 20260906024246 | 21 | 20 | 3.2 | 9.7 | 0.00 | 0.00 | 0.00 | 91 | 1016.3 |
| 20260906023745 | 21 | 97 | 3.2 | 9.7 | 0.00 | 0.00 | 0.00 | 91 | 1016.2 |
| 20260906023245 | 21 | 46 | 3.2 | 8.0 | 0.00 | 0.00 | 0.00 | 91 | 1016.2 |
| 20260906022745 | 21 | 42 | 3.2 | 11.3 | 0.00 | 0.00 | 0.00 | 91 | 1016.2 |
| 20260906022246 | 21 | 66 | 4.8 | 11.3 | 0.00 | 0.00 | 0.00 | 90 | 1016.2 |
| 20260906021743 | 21 | 35 | 4.8 | 11.3 | 0.00 | 0.00 | 0.00 | 90 | 1016.2 |
| 20260906020739 | 21 | 139 | 4.8 | 9.7 | 0.00 | 0.00 | 0.00 | 91 | 1016.1 |
| 20260906020239 | 21 | 56 | 3.2 | 9.7 | 0.00 | 0.00 | 0.00 | 91 | 1016.2 |
| 20260906015738 | 21 | 59 | 3.2 | 11.3 | 0.00 | 0.00 | 0.00 | 91 | 1016.3 |
| 20260906014738 | 21 | 46 | 3.2 | 11.3 | 0.00 | 0.00 | 0.00 | 92 | 1016.3 |
| 20260906014239 | 21 | 56 | 3.2 | 11.3 | 0.00 | 0.00 | 0.00 | 92 | 1016.2 |
| 20260906013738 | 22 | 82 | 3.2 | 9.7 | 0.00 | 0.00 | 0.00 | 92 | 1016.2 |
| 20260906013240 | 22 | 90 | 1.6 | 6.4 | 0.00 | 0.00 | 0.00 | 92 | 1016.2 |
| 20260906012734 | 22 | 90 | 3.2 | 8.0 | 0.00 | 0.00 | 0.00 | 91 | 1016.1 |
| 20260906012232 | 22 | 331 | 3.2 | 8.0 | 0.00 | 0.00 | 0.00 | 91 | 1016.2 |
| 20260906011733 | 22 | 56 | 4.8 | 11.3 | 0.00 | 0.00 | 0.00 | 91 | 1016.2 |
| 20260906011232 | 22 | 124 | 4.8 | 12.9 | 0.00 | 0.00 | 0.00 | 90 | 1016.2 |
| 20260906010733 | 22 | 90 | 4.8 | 16.1 | 0.00 | 0.00 | 0.00 | 90 | 1016.1 |
| 20260906010232 | 22 | 90 | 3.2 | 16.1 | 0.00 | 0.00 | 0.00 | 89 | 1016.1 |
| 20260906005734 | 22 | 49 | 3.2 | 12.9 | 0.00 | 0.00 | 0.00 | 89 | 1016.0 |
| 20260906005232 | 22 | 54 | 3.2 | 9.7 | 0.00 | 0.00 | 0.00 | 88 | 1016.0 |
| 20260906004732 | 23 | 68 | 3.2 | 11.3 | 0.00 | 0.00 | 0.00 | 88 | 1015.9 |
| 20260906004233 | 23 | 90 | 3.2 | 12.9 | 0.00 | 0.00 | 0.00 | 87 | 1015.8 |
| 20260906003728 | 23 | 46 | 3.2 | 12.9 | 0.00 | 0.00 | 0.00 | 87 | 1015.9 |
| 20260906003229 | 23 | 30 | 4.8 | 11.3 | 0.00 | 0.00 | 0.00 | 87 | 1015.9 |
| 20260906002728 | 23 | 46 | 3.2 | 11.3 | 0.00 | 0.00 | 0.00 | 87 | 1015.7 |
| 20260906002229 | 23 | 1 | 4.8 | 16.1 | 0.00 | 0.00 | 0.00 | 87 | 1015.7 |
| 20260906001728 | 23 | 49 | 4.8 | 16.1 | 0.00 | 0.00 | 0.00 | 86 | 1015.8 |
| 20260906001228 | 24 | 51 | 4.8 | 14.5 | 0.00 | 0.00 | 0.00 | 86 | 1015.7 |
| 20260906000229 | 25 | 33 | 4.8 | 16.1 | 0.00 | 0.00 | 0.00 | 86 | 1015.5 |
| 20260905235729 | 25 | 59 | 4.8 | 16.1 | 0.00 | 0.00 | 0.00 | 85 | 1015.5 |
| 20260905235223 | 25 | 49 | 4.8 | 12.9 | 0.00 | 0.00 | 0.00 | 84 | 1015.5 |
| 20260905234717 | 25 | 54 | 4.8 | 12.9 | 0.00 | 0.00 | 0.00 | 84 | 1015.4 |
| 20260905234210 | 25 | 44 | 4.8 | 11.3 | 0.00 | 0.00 | 0.00 | 83 | 1015.4 |
| 20260905233158 | 26 | 58 | 4.8 | 17.7 | 0.00 | 0.00 | 0.00 | 81 | 1015.2 |
| 20260905232147 | 26 | 60 | 4.8 | 17.7 | 0.00 | 0.00 | 0.00 | 80 | 1014.9 |
| 20260905231640 | 26 | 56 | 4.8 | 17.7 | 0.00 | 0.00 | 0.00 | 80 | 1014.9 |
| 20260905231134 | 26 | 72 | 3.2 | 12.9 | 0.00 | 0.00 | 0.00 | 80 | 1014.9 |
| 20260905230123 | 26 | 28 | 3.2 | 17.7 | 0.00 | 0.00 | 0.00 | 78 | 1014.9 |
| 20260905225617 | 27 | 102 | 4.8 | 22.5 | 0.00 | 0.00 | 0.00 | 78 | 1014.9 |
| 20260905225110 | 27 | 202 | 8.0 | 24.1 | 0.00 | 0.00 | 0.00 | 77 | 1014.8 |
| 20260905224604 | 27 | 20 | 9.7 | 24.1 | 0.00 | 0.00 | 0.00 | 76 | 1014.9 |
| 20260905224058 | 27 | 27 | 6.4 | 19.3 | 0.00 | 0.00 | 0.00 | 76 | 1014.7 |
| 20260905223552 | 27 | 27 | 6.4 | 16.1 | 0.00 | 0.00 | 0.00 | 75 | 1014.6 |
| 20260905223046 | 27 | 49 | 8.0 | 17.7 | 0.00 | 0.00 | 0.00 | 75 | 1014.5 |
| 20260905222541 | 27 | 16 | 8.0 | 17.7 | 0.00 | 0.00 | 0.00 | 75 | 1014.5 |
| 20260905222034 | 27 | 1 | 8.0 | 17.7 | 0.00 | 0.00 | 0.00 | 75 | 1014.5 |
| 20260905221528 | 27 | 25 | 8.0 | 20.9 | 0.00 | 0.00 | 0.00 | 76 | 1014.6 |
| 20260905221023 | 27 | 30 | 8.0 | 25.7 | 0.00 | 0.00 | 0.00 | 77 | 1014.6 |
| 20260905220516 | 27 | 90 | 6.4 | 25.7 | 0.00 | 0.00 | 0.00 | 76 | 1014.4 |
| 20260905220010 | 27 | 210 | 4.8 | 17.7 | 0.00 | 0.00 | 0.00 | 77 | 1014.5 |
| 20260905215505 | 27 | 33 | 4.8 | 17.7 | 0.00 | 0.00 | 0.00 | 78 | 1014.5 |
| 20260905214958 | 27 | 28 | 4.8 | 14.5 | 0.00 | 0.00 | 0.00 | 81 | 1014.5 |
| 20260905214453 | 27 | 11 | 4.8 | 17.7 | 0.00 | 0.00 | 0.00 | 80 | 1014.5 |
| 20260905213947 | 27 | 46 | 4.8 | 17.7 | 0.00 | 0.00 | 0.00 | 80 | 1014.5 |
| 20260905212934 | 26 | 323 | 6.4 | 16.1 | 0.00 | 0.00 | 0.00 | 81 | 1014.5 |
| 20260905212428 | 26 | 20 | 4.8 | 14.5 | 0.00 | 0.00 | 0.00 | 82 | 1014.5 |
| 20260905211922 | 26 | 28 | 4.8 | 14.5 | 0.00 | 0.00 | 0.00 | 82 | 1014.7 |
| 20260905211416 | 26 | 108 | 4.8 | 14.5 | 0.00 | 0.00 | 0.00 | 83 | 1014.7 |
| 20260905210405 | 26 | 117 | 6.4 | 17.7 | 0.00 | 0.00 | 0.00 | 83 | 1014.8 |
| 20260905205858 | 26 | 37 | 6.4 | 17.7 | 0.00 | 0.00 | 0.00 | 83 | 1014.7 |
| 20260905205352 | 25 | 30 | 4.8 | 17.7 | 0.00 | 0.00 | 0.00 | 84 | 1014.8 |
| 20260905204846 | 25 | 72 | 4.8 | 12.9 | 0.00 | 0.00 | 0.00 | 85 | 1014.9 |
| 20260905204340 | 25 | 72 | 4.8 | 11.3 | 0.00 | 0.00 | 0.00 | 85 | 1015.0 |
| 20260905203834 | 25 | 72 | 4.8 | 11.3 | 0.00 | 0.00 | 0.00 | 86 | 1015.1 |
| 20260905202822 | 25 | 28 | 3.2 | 9.7 | 0.00 | 0.00 | 0.00 | 87 | 1015.0 |
| 20260905202317 | 25 | 6 | 4.8 | 11.3 | 0.00 | 0.00 | 0.00 | 87 | 1015.1 |
| 20260905201810 | 25 | 11 | 4.8 | 12.9 | 0.00 | 0.00 | 0.00 | 87 | 1015.2 |
| 20260905201304 | 25 | 114 | 4.8 | 12.9 | 0.00 | 0.00 | 0.00 | 86 | 1015.4 |
| 20260905200800 | 25 | 114 | 6.4 | 17.7 | 0.00 | 0.00 | 0.00 | 86 | 1015.2 |
| 20260905195752 | 25 | 122 | 6.4 | 22.5 | 0.00 | 0.00 | 0.00 | 86 | 1015.1 |
| 20260905195253 | 25 | 18 | 9.7 | 22.5 | 0.00 | 0.00 | 0.00 | 86 | 1015.2 |
| 20260905194753 | 25 | 37 | 6.4 | 22.5 | 0.00 | 0.00 | 0.00 | 86 | 1015.1 |
| 20260905194251 | 25 | 25 | 6.4 | 14.5 | 0.00 | 0.00 | 0.00 | 86 | 1015.0 |
| 20260905193253 | 26 | 87 | 4.8 | 12.9 | 0.00 | 0.00 | 0.00 | 85 | 1015.1 |
| 20260905192753 | 26 | 27 | 4.8 | 12.9 | 0.00 | 0.00 | 0.00 | 85 | 1015.1 |
| 20260905192250 | 26 | 60 | 6.4 | 19.3 | 0.00 | 0.00 | 0.00 | 84 | 1015.0 |
| 20260905191747 | 26 | 90 | 8.0 | 25.7 | 0.00 | 0.00 | 0.00 | 83 | 1015.0 |
| 20260905191247 | 27 | 340 | 6.4 | 25.7 | 0.00 | 0.00 | 0.00 | 83 | 1015.0 |
| 20260905190747 | 27 | 34 | 4.8 | 19.3 | 0.00 | 0.00 | 0.00 | 82 | 1014.9 |
| 20260905190247 | 27 | 63 | 6.4 | 19.3 | 0.00 | 0.00 | 0.00 | 82 | 1015.0 |
| 20260905185747 | 27 | 30 | 6.4 | 17.7 | 0.00 | 0.00 | 0.00 | 82 | 1015.1 |
| 20260905185249 | 27 | 13 | 6.4 | 19.3 | 0.00 | 0.00 | 0.00 | 82 | 1015.1 |
| 20260905184748 | 27 | 32 | 8.0 | 20.9 | 0.00 | 0.00 | 0.00 | 83 | 1015.1 |
| 20260905184246 | 27 | 58 | 11.3 | 24.1 | 0.00 | 0.00 | 0.00 | 82 | 1015.1 |
| 20260905183744 | 27 | 25 | 11.3 | 24.1 | 0.00 | 0.00 | 0.00 | 82 | 1015.2 |
| 20260905182739 | 27 | 172 | 6.4 | 17.7 | 0.00 | 0.00 | 0.00 | 84 | 1015.2 |
| 20260905182240 | 27 | 40 | 6.4 | 22.5 | 0.00 | 0.00 | 0.00 | 84 | 1015.2 |
| 20260905181739 | 27 | 161 | 8.0 | 22.5 | 0.00 | 0.00 | 0.00 | 83 | 1015.4 |
| 20260905181239 | 27 | 146 | 9.7 | 25.7 | 0.00 | 0.00 | 0.00 | 84 | 1015.2 |
| 20260905180739 | 26 | 37 | 9.7 | 25.7 | 0.00 | 0.00 | 0.00 | 85 | 1015.2 |
| 20260905180239 | 26 | 46 | 9.7 | 24.1 | 0.00 | 0.00 | 0.00 | 85 | 1015.2 |
| 20260905175740 | 26 | 47 | 9.7 | 24.1 | 0.00 | 0.00 | 0.00 | 85 | 1015.1 |
| 20260905175239 | 26 | 20 | 6.4 | 20.9 | 0.00 | 0.00 | 0.00 | 85 | 1015.1 |
| 20260905174740 | 26 | 42 | 4.8 | 24.1 | 0.00 | 0.00 | 0.00 | 85 | 1015.1 |
| 20260905174234 | 27 | 27 | 6.4 | 24.1 | 0.00 | 0.00 | 0.00 | 85 | 1015.2 |
| 20260905173234 | 27 | 82 | 4.8 | 17.7 | 0.00 | 0.00 | 0.00 | 84 | 1015.1 |
| 20260905171234 | 26 | 33 | 9.7 | 20.9 | 0.00 | 0.00 | 0.00 | 87 | 1015.4 |
| 20260905170734 | 26 | 46 | 8.0 | 17.7 | 0.00 | 0.00 | 0.00 | 88 | 1015.4 |
| 20260905170232 | 26 | 25 | 6.4 | 17.7 | 0.00 | 0.00 | 0.00 | 88 | 1015.2 |
| 20260905165729 | 26 | 53 | 4.8 | 17.7 | 0.00 | 0.00 | 0.00 | 89 | 1015.2 |
| 20260905165230 | 26 | 32 | 4.8 | 14.5 | 0.00 | 0.00 | 0.00 | 90 | 1015.2 |
| 20260905164723 | 26 | 42 | 4.8 | 14.5 | 0.00 | 0.00 | 0.00 | 90 | 1015.5 |
| 20260905164217 | 26 | 63 | 4.8 | 12.9 | 0.00 | 0.00 | 0.00 | 91 | 1015.5 |
| 20260905163711 | 25 | 1 | 8.0 | 16.1 | 0.00 | 0.00 | 0.00 | 91 | 1015.4 |
| 20260905162153 | 25 | 30 | 4.8 | 12.9 | 0.00 | 0.00 | 0.00 | 92 | 1015.4 |
| 20260905161648 | 25 | 331 | 6.4 | 17.7 | 0.00 | 0.00 | 0.00 | 93 | 1015.5 |
| 20260905161141 | 25 | 16 | 6.4 | 17.7 | 0.00 | 0.00 | 0.00 | 94 | 1015.5 |
| 20260905160636 | 25 | 63 | 3.2 | 12.9 | 0.00 | 0.00 | 0.00 | 94 | 1015.4 |
| 20260905160129 | 24 | 25 | 4.8 | 14.5 | 0.00 | 0.00 | 0.00 | 94 | 1015.4 |
| 20260905155623 | 24 | 63 | 8.0 | 14.5 | 0.00 | 0.00 | 0.00 | 94 | 1015.4 |
| 20260905155117 | 24 | 340 | 4.8 | 14.5 | 0.00 | 0.00 | 0.00 | 95 | 1015.5 |
| 20260905154611 | 24 | 13 | 3.2 | 9.7 | 0.00 | 0.00 | 0.00 | 95 | 1015.4 |
| 20260905154105 | 24 | 75 | 4.8 | 12.9 | 0.00 | 0.00 | 0.00 | 95 | 1015.4 |
| 20260905153559 | 24 | 21 | 3.2 | 12.9 | 0.00 | 0.00 | 0.00 | 96 | 1015.4 |
| 20260905153053 | 23 | 44 | 3.2 | 11.3 | 0.00 | 0.00 | 0.00 | 96 | 1015.2 |
| 20260905152548 | 23 | 161 | 4.8 | 12.9 | 0.00 | 0.00 | 0.00 | 96 | 1015.0 |
| 20260905152041 | 23 | 32 | 6.4 | 14.5 | 0.00 | 0.00 | 0.00 | 96 | 1015.2 |
| 20260905151535 | 23 | 30 | 4.8 | 14.5 | 0.00 | 0.00 | 0.00 | 97 | 1015.0 |
| 20260905150523 | 23 | 18 | 3.2 | 14.5 | 0.00 | 0.00 | 0.00 | 97 | 1014.9 |
| 20260905150018 | 23 | 54 | 3.2 | 11.3 | 0.00 | 0.00 | 0.00 | 97 | 1014.7 |
| 20260905145512 | 23 | 82 | 4.8 | 11.3 | 0.00 | 0.00 | 0.00 | 97 | 1014.8 |
| 20260905143954 | 23 | 20 | 4.8 | 16.1 | 0.00 | 0.00 | 0.00 | 97 | 1014.5 |
| 20260905141929 | 23 | 37 | 6.4 | 14.5 | 0.00 | 0.00 | 0.00 | 97 | 1014.7 |
| 20260905141424 | 23 | 37 | 4.8 | 14.5 | 0.00 | 0.00 | 0.00 | 97 | 1014.6 |
| 20260905140917 | 23 | 25 | 4.8 | 19.3 | 0.00 | 0.00 | 0.00 | 96 | 1014.7 |
| 20260905140412 | 23 | 23 | 6.4 | 19.3 | 0.00 | 0.00 | 0.00 | 96 | 1014.7 |
| 20260905135905 | 23 | 37 | 4.8 | 17.7 | 0.00 | 0.00 | 0.00 | 96 | 1014.6 |
| 20260905135400 | 23 | 23 | 4.8 | 17.7 | 0.00 | 0.00 | 0.00 | 96 | 1014.7 |
| 20260905134854 | 23 | 42 | 6.4 | 17.7 | 0.00 | 0.00 | 0.00 | 95 | 1014.6 |
| 20260905134348 | 23 | 68 | 8.0 | 20.9 | 0.00 | 0.00 | 0.00 | 96 | 1014.5 |
| 20260905133842 | 23 | 28 | 8.0 | 20.9 | 0.00 | 0.00 | 0.00 | 96 | 1014.5 |
| 20260905133335 | 23 | 39 | 6.4 | 16.1 | 0.00 | 0.00 | 0.00 | 96 | 1014.4 |
| 20260905132830 | 23 | 46 | 4.8 | 14.5 | 0.00 | 0.00 | 0.00 | 96 | 1014.5 |
| 20260905132324 | 23 | 27 | 3.2 | 12.9 | 0.00 | 0.00 | 0.00 | 97 | 1014.5 |
| 20260905131817 | 23 | 46 | 3.2 | 9.7 | 0.00 | 0.00 | 0.00 | 97 | 1014.4 |
| 20260905131315 | 23 | 148 | 3.2 | 11.3 | 0.00 | 0.00 | 0.00 | 97 | 1014.3 |